TimePST,TemperatureF,Dew PointF,Humidity,Sea Level PressureIn,VisibilityMPH,Wind Direction,Wind SpeedMPH,Gust SpeedMPH,PrecipitationIn,Events,Conditions,WindDirDegrees,DateUTC
12:15 AM,44.6,26.6,49,30.08,10.0,SSW,12.7,-,N/A,,Clear,200,2012-11-21 08:15:00
12:35 AM,42.8,26.6,53,30.08,10.0,South,6.9,-,N/A,,Clear,170,2012-11-21 08:35:00
12:55 AM,42.8,26.6,53,30.08,10.0,Calm,Calm,-,N/A,,Clear,0,2012-11-21 08:55:00
1:15 AM,39.2,24.8,56,30.08,10.0,Calm,Calm,-,N/A,,Clear,0,2012-11-21 09:15:00
1:35 AM,39.2,24.8,56,30.07,10.0,SW,4.6,-,N/A,,Clear,220,2012-11-21 09:35:00
1:55 AM,37.4,24.8,60,30.07,10.0,Calm,Calm,-,N/A,,Clear,0,2012-11-21 09:55:00
2:15 AM,35.6,24.8,65,30.07,10.0,NNW,3.5,-,N/A,,Clear,340,2012-11-21 10:15:00
2:35 AM,35.6,24.8,65,30.07,10.0,North,3.5,-,N/A,,Clear,10,2012-11-21 10:35:00
2:55 AM,35.6,24.8,65,30.07,10.0,NNW,3.5,-,N/A,,Clear,330,2012-11-21 10:55:00
3:15 AM,33.8,24.8,70,30.07,10.0,Calm,Calm,-,N/A,,Clear,0,2012-11-21 11:15:00
3:35 AM,32.0,24.8,75,30.06,10.0,SSE,3.5,-,N/A,,Clear,160,2012-11-21 11:35:00
3:55 AM,32.0,23.0,69,30.06,10.0,SSE,3.5,-,N/A,,Clear,160,2012-11-21 11:55:00
4:15 AM,30.2,23.0,75,30.05,10.0,Calm,Calm,-,N/A,,Clear,0,2012-11-21 12:15:00
4:35 AM,30.2,23.0,75,30.06,10.0,Calm,Calm,-,N/A,,Clear,0,2012-11-21 12:35:00
4:55 AM,28.4,23.0,80,30.05,10.0,Calm,Calm,-,N/A,,Clear,0,2012-11-21 12:55:00
5:15 AM,28.4,21.2,74,30.06,10.0,NNW,3.5,-,N/A,,Clear,330,2012-11-21 13:15:00
5:35 AM,30.2,24.8,80,30.06,10.0,North,5.8,-,N/A,,Clear,360,2012-11-21 13:35:00
5:55 AM,28.4,23.0,80,30.06,10.0,SW,4.6,-,N/A,,Clear,230,2012-11-21 13:55:00
6:15 AM,28.4,23.0,80,30.06,10.0,South,6.9,-,N/A,,Clear,170,2012-11-21 14:15:00
6:35 AM,32.0,24.8,75,30.07,10.0,SSW,8.1,-,N/A,,Clear,200,2012-11-21 14:35:00
6:55 AM,32.0,23.0,69,30.08,10.0,Calm,Calm,-,N/A,,Clear,0,2012-11-21 14:55:00
7:15 AM,30.2,23.0,75,30.08,10.0,Calm,Calm,-,N/A,,Clear,0,2012-11-21 15:15:00
7:35 AM,32.0,24.8,75,30.08,10.0,Calm,Calm,-,N/A,,Clear,0,2012-11-21 15:35:00
7:55 AM,32.0,26.6,80,30.09,10.0,Calm,Calm,-,N/A,,Clear,0,2012-11-21 15:55:00
8:15 AM,37.4,28.4,70,30.10,10.0,Calm,Calm,-,N/A,,Clear,0,2012-11-21 16:15:00
8:35 AM,41.0,28.4,61,30.09,10.0,Calm,Calm,-,N/A,,Clear,0,2012-11-21 16:35:00
8:55 AM,42.8,28.4,57,30.09,10.0,NE,3.5,-,N/A,,Clear,50,2012-11-21 16:55:00
9:15 AM,44.6,26.6,49,30.10,10.0,Calm,Calm,-,N/A,,Clear,0,2012-11-21 17:15:00
9:35 AM,46.4,26.6,46,30.09,10.0,Calm,Calm,-,N/A,,Clear,0,2012-11-21 17:35:00
9:55 AM,46.4,26.6,46,30.08,10.0,Calm,Calm,-,N/A,,Clear,0,2012-11-21 17:55:00
10:15 AM,48.2,26.6,43,30.08,10.0,Calm,Calm,-,N/A,,Clear,0,2012-11-21 18:15:00
10:35 AM,50.0,26.6,40,30.08,10.0,Calm,Calm,-,N/A,,Clear,0,2012-11-21 18:35:00
10:55 AM,50.0,26.6,40,30.07,10.0,NE,3.5,-,N/A,,Partly Cloudy,40,2012-11-21 18:55:00
11:15 AM,51.8,28.4,41,30.06,10.0,Calm,Calm,-,N/A,,Scattered Clouds,0,2012-11-21 19:15:00
11:35 AM,53.6,26.6,35,30.05,10.0,ESE,4.6,-,N/A,,Overcast,120,2012-11-21 19:35:00
12:15 PM,55.4,26.6,33,30.04,10.0,SSE,3.5,-,N/A,,Overcast,160,2012-11-21 20:15:00
12:35 PM,55.4,26.6,33,30.04,10.0,Calm,Calm,-,N/A,,Overcast,0,2012-11-21 20:35:00
12:55 PM,55.4,26.6,33,30.04,10.0,Calm,Calm,-,N/A,,Mostly Cloudy,0,2012-11-21 20:55:00
1:15 PM,57.2,26.6,31,30.03,10.0,Calm,Calm,-,N/A,,Mostly Cloudy,0,2012-11-21 21:15:00
1:35 PM,57.2,26.6,31,30.03,10.0,East,4.6,-,N/A,,Mostly Cloudy,90,2012-11-21 21:35:00
1:55 PM,59.0,28.4,31,30.03,10.0,SSE,11.5,-,N/A,,Mostly Cloudy,150,2012-11-21 21:55:00
2:15 PM,59.0,28.4,31,30.03,10.0,SSE,9.2,-,N/A,,Mostly Cloudy,150,2012-11-21 22:15:00
2:35 PM,57.2,28.4,33,30.03,10.0,South,6.9,-,N/A,,Scattered Clouds,180,2012-11-21 22:35:00
2:55 PM,55.4,28.4,36,30.03,10.0,South,3.5,-,N/A,,Partly Cloudy,170,2012-11-21 22:55:00
3:15 PM,55.4,28.4,36,30.03,10.0,SSE,6.9,-,N/A,,Mostly Cloudy,150,2012-11-21 23:15:00
3:35 PM,57.2,28.4,33,30.04,10.0,Calm,Calm,-,N/A,,Overcast,0,2012-11-21 23:35:00
3:55 PM,57.2,26.6,31,30.04,10.0,West,11.5,-,N/A,,Mostly Cloudy,280,2012-11-21 23:55:00
4:15 PM,55.4,24.8,31,30.05,10.0,West,16.1,20.7,N/A,,Scattered Clouds,280,2012-11-22 00:15:00
4:35 PM,55.4,23.0,29,30.05,10.0,WNW,12.7,20.7,N/A,,Clear,290,2012-11-22 00:35:00
4:55 PM,51.8,26.6,38,30.07,10.0,NNW,10.4,-,N/A,,Clear,330,2012-11-22 00:55:00
5:15 PM,48.2,28.4,46,30.07,10.0,NW,10.4,-,N/A,,Clear,320,2012-11-22 01:15:00
5:35 PM,46.4,28.4,50,30.09,10.0,NW,6.9,-,N/A,,Clear,310,2012-11-22 01:35:00
5:55 PM,46.4,30.2,53,30.10,10.0,SSW,4.6,-,N/A,,Clear,210,2012-11-22 01:55:00
6:15 PM,44.6,30.2,57,30.13,10.0,East,8.1,-,N/A,,Clear,100,2012-11-22 02:15:00
6:35 PM,46.4,32.0,57,30.13,10.0,Calm,Calm,-,N/A,,Clear,0,2012-11-22 02:35:00
6:55 PM,46.4,32.0,57,30.13,10.0,SW,4.6,-,N/A,,Partly Cloudy,230,2012-11-22 02:55:00
7:15 PM,41.0,28.4,61,30.15,10.0,South,6.9,-,N/A,,Scattered Clouds,180,2012-11-22 03:15:00
7:35 PM,39.2,28.4,65,30.14,10.0,SW,8.1,-,N/A,,Partly Cloudy,220,2012-11-22 03:35:00
7:55 PM,35.6,28.4,75,30.16,10.0,Calm,Calm,-,N/A,,Partly Cloudy,0,2012-11-22 03:55:00
8:15 PM,35.6,26.6,70,30.16,10.0,SW,8.1,-,N/A,,Clear,220,2012-11-22 04:15:00
8:35 PM,35.6,28.4,75,30.17,10.0,ESE,4.6,-,N/A,,Clear,120,2012-11-22 04:35:00
8:55 PM,37.4,28.4,70,30.17,10.0,WSW,8.1,-,N/A,,Clear,240,2012-11-22 04:55:00
9:15 PM,39.2,28.4,65,30.18,10.0,West,3.5,-,N/A,,Clear,270,2012-11-22 05:15:00
9:35 PM,37.4,28.4,70,30.18,10.0,SSW,3.5,-,N/A,,Clear,200,2012-11-22 05:35:00
9:55 PM,35.6,26.6,70,30.20,10.0,East,3.5,-,N/A,,Clear,80,2012-11-22 05:55:00
10:15 PM,35.6,26.6,70,30.21,10.0,Calm,Calm,-,N/A,,Clear,0,2012-11-22 06:15:00
10:35 PM,32.0,24.8,75,30.23,10.0,NNE,4.6,-,N/A,,Clear,20,2012-11-22 06:35:00
10:55 PM,32.0,24.8,75,30.23,10.0,Calm,Calm,-,N/A,,Clear,0,2012-11-22 06:55:00
11:15 PM,32.0,26.6,80,30.24,10.0,Calm,Calm,-,N/A,,Clear,0,2012-11-22 07:15:00
11:35 PM,30.2,24.8,80,30.25,10.0,ESE,3.5,-,N/A,,Clear,110,2012-11-22 07:35:00
11:55 PM,28.4,24.8,86,30.25,10.0,South,6.9,-,N/A,,Clear,180,2012-11-22 07:55:00